QPF
0.00 0.00 0.01 0.01 0.00 0.00 0.00 0.00 0.00 0.00 0.03 0.02 0.01 0.01 0.00 0.00 0.00 0.00 0.00 0.01 0.01 0.00 0.01 0.02 0.02 0.03 0.02 0.03 0.03 0.03 0.04 0.04 0.05 0.05 0.06 0.06 0.04 0.03 0.03 0.02 0.02 0.02 0.02 0.03
0.00 0.00 0.00 0.00 0.00 0.00 0.00 0.00 0.00 0.00 0.01 0.02 0.04 0.02 0.00 0.00 0.00 0.00 0.00 0.00 0.00 0.00 0.00 0.00 0.01 0.02 0.03 0.04 0.04 0.05 0.05 0.04 0.04 0.04 0.04 0.04 0.04 0.04 0.04 0.03 0.03 0.04 0.03 0.03
0.00 0.00 0.00 0.00 0.00 0.00 0.00 0.00 0.00 0.00 0.01 0.02 0.02 0.01 0.00 0.00 0.00 0.00 0.00 0.00 0.00 0.00 0.00 0.00 0.01 0.01 0.01 0.02 0.04 0.05 0.06 0.04 0.04 0.04 0.05 0.05 0.04 0.04 0.04 0.04 0.04 0.05 0.05 0.04
0.00 0.00 0.00 0.00 0.00 0.00 0.00 0.00 0.00 0.00 0.00 0.00 0.00 0.00 0.00 0.00 0.00 0.00 0.00 0.00 0.00 0.00 0.00 0.01 0.01 0.01 0.01 0.01 0.02 0.03 0.05 0.06 0.05 0.04 0.04 0.04 0.04 0.05 0.06 0.06 0.07 0.08 0.07 0.07
0.00 0.00 0.00 0.00 0.00 0.00 0.00 0.00 0.00 0.00 0.00 0.00 0.00 0.00 0.00 0.00 0.00 0.00 0.00 0.00 0.00 0.00 0.01 0.01 0.02 0.02 0.02 0.02 0.03 0.03 0.02 0.03 0.04 0.05 0.04 0.03 0.03 0.04 0.05 0.06 0.07 0.07 0.07 0.07
0.00 0.00 0.00 0.00 0.00 0.00 0.00 0.00 0.00 0.00 0.00 0.00 0.00 0.00 0.00 0.00 0.00 0.00 0.00 0.00 0.00 0.00 0.01 0.01 0.01 0.02 0.03 0.03 0.03 0.03 0.03 0.03 0.05 0.07 0.06 0.04 0.04 0.04 0.04 0.04 0.05 0.05 0.06 0.07
0.00 0.00 0.00 0.00 0.00 0.00 0.00 0.00 0.00 0.00 0.00 0.00 0.00 0.00 0.00 0.00 0.00 0.01 0.01 0.01 0.00 0.00 0.00 0.00 0.01 0.01 0.01 0.02 0.02 0.02 0.02 0.03 0.05 0.07 0.09 0.08 0.05 0.04 0.03 0.04 0.04 0.05 0.06 0.07
0.00 0.00 0.00 0.00 0.00 0.00 0.00 0.00 0.00 0.00 0.01 0.01 0.00 0.00 0.00 0.00 0.00 0.01 0.01 0.01 0.01 0.00 0.00 0.00 0.00 0.00 0.00 0.00 0.01 0.01 0.01 0.02 0.03 0.05 0.05 0.07 0.12 0.13 0.07 0.05 0.05 0.05 0.05 0.06
0.00 0.01 0.00 0.00 0.00 0.00 0.00 0.00 0.00 0.01 0.01 0.01 0.01 0.00 0.00 0.01 0.02 0.03 0.02 0.02 0.02 0.01 0.01 0.01 0.00 0.00 0.00 0.00 0.00 0.00 0.01 0.02 0.03 0.05 0.05 0.07 0.09 0.10 0.09 0.09 0.07 0.07 0.06 0.05
0.00 0.00 0.00 0.00 0.00 0.00 0.00 0.01 0.01 0.01 0.01 0.02 0.01 0.01 0.03 0.03 0.03 0.03 0.02 0.02 0.02 0.01 0.01 0.01 0.01 0.01 0.00 0.01 0.00 0.00 0.01 0.01 0.02 0.02 0.03 0.05 0.06 0.06 0.06 0.07 0.07 0.07 0.06 0.06
0.00 0.00 0.00 0.00 0.00 0.00 0.01 0.01 0.01 0.01 0.01 0.01 0.02 0.03 0.04 0.04 0.03 0.03 0.02 0.01 0.01 0.01 0.01 0.01 0.01 0.01 0.00 0.01 0.01 0.01 0.01 0.01 0.02 0.01 0.03 0.04 0.06 0.06 0.06 0.06 0.06 0.05 0.05 0.05
0.00 0.00 0.00 0.00 0.01 0.01 0.01 0.01 0.01 0.01 0.01 0.01 0.02 0.02 0.03 0.05 0.04 0.04 0.02 0.02 0.02 0.03 0.02 0.02 0.02 0.01 0.01 0.01 0.01 0.01 0.02 0.02 0.03 0.03 0.03 0.03 0.04 0.04 0.03 0.04 0.04 0.04 0.04 0.04
0.00 0.00 0.00 0.00 0.01 0.02 0.01 0.00 0.00 0.00 0.00 0.01 0.02 0.03 0.04 0.05 0.04 0.04 0.04 0.04 0.04 0.04 0.03 0.02 0.02 0.02 0.01 0.01 0.01 0.02 0.02 0.02 0.02 0.02 0.02 0.02 0.02 0.03 0.03 0.02 0.02 0.01 0.01 0.01
0.00 0.00 0.00 0.00 0.01 0.01 0.01 0.01 0.01 0.00 0.01 0.01 0.02 0.02 0.03 0.03 0.03 0.03 0.04 0.05 0.04 0.04 0.04 0.04 0.04 0.03 0.03 0.03 0.03 0.03 0.02 0.01 0.01 0.01 0.01 0.01 0.01 0.02 0.02 0.02 0.02 0.02 0.01 0.01
0.00 0.00 0.00 0.00 0.01 0.01 0.01 0.01 0.01 0.01 0.01 0.02 0.02 0.02 0.03 0.03 0.04 0.04 0.04 0.03 0.03 0.03 0.03 0.02 0.04 0.05 0.04 0.03 0.03 0.03 0.02 0.01 0.01 0.01 0.01 0.01 0.01 0.01 0.01 0.01 0.01 0.02 0.02 0.02
0.00 0.00 0.00 0.01 0.01 0.01 0.02 0.02 0.02 0.02 0.02 0.02 0.02 0.01 0.01 0.01 0.02 0.02 0.02 0.03 0.04 0.04 0.05 0.04 0.04 0.05 0.04 0.03 0.04 0.03 0.02 0.01 0.01 0.01 0.00 0.01 0.01 0.01 0.01 0.01 0.01 0.02 0.03 0.03
0.00 0.01 0.01 0.01 0.01 0.01 0.01 0.01 0.01 0.01 0.01 0.00 0.00 0.01 0.01 0.01 0.01 0.02 0.02 0.02 0.03 0.05 0.05 0.05 0.05 0.04 0.03 0.02 0.03 0.02 0.02 0.01 0.01 0.01 0.01 0.01 0.01 0.01 0.01 0.02 0.03 0.03 0.03 0.03
0.01 0.01 0.01 0.02 0.02 0.01 0.01 0.01 0.01 0.01 0.01 0.01 0.01 0.01 0.01 0.02 0.02 0.02 0.02 0.02 0.02 0.02 0.02 0.03 0.02 0.02 0.02 0.03 0.03 0.03 0.03 0.02 0.02 0.02 0.02 0.02 0.02 0.02 0.02 0.02 0.02 0.02 0.02 0.02
0.01 0.02 0.02 0.02 0.02 0.02 0.02 0.01 0.01 0.01 0.01 0.01 0.02 0.02 0.02 0.01 0.01 0.02 0.02 0.03 0.04 0.04 0.03 0.02 0.02 0.02 0.03 0.03 0.02 0.03 0.03 0.02 0.02 0.02 0.03 0.02 0.03 0.03 0.03 0.03 0.03 0.02 0.02 0.03
0.01 0.01 0.02 0.02 0.02 0.02 0.02 0.02 0.02 0.01 0.01 0.02 0.02 0.02 0.02 0.01 0.01 0.01 0.02 0.03 0.04 0.04 0.04 0.04 0.03 0.03 0.03 0.03 0.01 0.01 0.02 0.02 0.03 0.03 0.03 0.04 0.04 0.04 0.03 0.03 0.03 0.03 0.03 0.04
0.01 0.01 0.01 0.02 0.03 0.02 0.02 0.02 0.02 0.02 0.02 0.02 0.02 0.02 0.02 0.02 0.02 0.02 0.03 0.03 0.03 0.03 0.04 0.05 0.04 0.04 0.03 0.03 0.02 0.02 0.03 0.03 0.04 0.04 0.04 0.04 0.03 0.03 0.03 0.04 0.05 0.06 0.08 0.07
0.01 0.02 0.03 0.02 0.02 0.01 0.02 0.02 0.02 0.02 0.02 0.02 0.02 0.02 0.02 0.02 0.02 0.02 0.03 0.03 0.03 0.03 0.04 0.03 0.03 0.04 0.03 0.03 0.03 0.03 0.03 0.04 0.04 0.04 0.03 0.03 0.03 0.04 0.05 0.05 0.05 0.05 0.06 0.07
0.02 0.02 0.03 0.03 0.02 0.01 0.02 0.02 0.02 0.02 0.02 0.02 0.02 0.02 0.02 0.02 0.02 0.02 0.02 0.02 0.02 0.02 0.02 0.02 0.02 0.02 0.02 0.02 0.02 0.02 0.02 0.02 0.03 0.03 0.03 0.03 0.03 0.03 0.03 0.03 0.03 0.03 0.03 0.03
0.04 0.03 0.03 0.03 0.02 0.02 0.03 0.03 0.02 0.02 0.02 0.01 0.01 0.01 0.01 0.01 0.02 0.01 0.01 0.01 0.01 0.01 0.01 0.01 0.01 0.01 0.01 0.02 0.03 0.02 0.02 0.02 0.03 0.03 0.04 0.05 0.05 0.04 0.03 0.03 0.03 0.02 0.02 0.02
0.05 0.04 0.03 0.03 0.03 0.02 0.02 0.02 0.02 0.01 0.01 0.01 0.01 0.00 0.00 0.01 0.01 0.01 0.01 0.02 0.02 0.02 0.01 0.02 0.02 0.02 0.02 0.03 0.02 0.02 0.02 0.02 0.02 0.02 0.03 0.04 0.03 0.03 0.03 0.04 0.04 0.03 0.02 0.02
0.04 0.03 0.02 0.02 0.01 0.01 0.01 0.01 0.01 0.01 0.01 0.01 0.01 0.00 0.00 0.01 0.01 0.01 0.01 0.01 0.02 0.02 0.01 0.02 0.02 0.03 0.03 0.03 0.02 0.02 0.02 0.03 0.03 0.03 0.03 0.02 0.02 0.03 0.03 0.02 0.02 0.01 0.01 0.02
0.01 0.01 0.01 0.01 0.01 0.00 0.00 0.01 0.01 0.01 0.02 0.01 0.01 0.01 0.00 0.01 0.01 0.01 0.01 0.01 0.01 0.01 0.01 0.01 0.01 0.02 0.03 0.03 0.02 0.03 0.02 0.02 0.02 0.02 0.02 0.02 0.02 0.02 0.02 0.02 0.02 0.01 0.01 0.01
MSLP
1005.58 1005.95 1006.22 1006.39 1006.46 1006.42 1006.28 1006.03 1005.69 1005.25 1004.74 1004.16 1003.56 1002.96 1002.40 1001.92 1001.54 1001.30 1001.19 1001.23 1001.41 1001.72 1002.15 1002.68 1003.29 1003.96 1004.68 1005.42 1006.16 1006.87 1007.54 1008.16 1008.70 1009.18 1009.59 1009.95 1010.26 1010.55 1010.82 1011.08 1011.32 1011.55 1011.73 1011.88
1005.75 1005.99 1006.09 1006.05 1005.88 1005.64 1005.33 1004.99 1004.64 1004.28 1003.91 1003.55 1003.17 1002.79 1002.41 1002.04 1001.69 1001.39 1001.16 1001.04 1001.03 1001.17 1001.46 1001.89 1002.47 1003.15 1003.92 1004.74 1005.56 1006.35 1007.09 1007.74 1008.30 1008.78 1009.17 1009.51 1009.81 1010.09 1010.36 1010.62 1010.87 1011.10 1011.29 1011.44
1005.93 1006.03 1005.95 1005.71 1005.34 1004.91 1004.46 1004.04 1003.68 1003.39 1003.16 1002.97 1002.80 1002.61 1002.38 1002.11 1001.80 1001.47 1001.16 1000.91 1000.76 1000.76 1000.92 1001.28 1001.80 1002.48 1003.27 1004.12 1004.99 1005.82 1006.57 1007.22 1007.77 1008.23 1008.59 1008.90 1009.18 1009.44 1009.69 1009.95 1010.20 1010.43 1010.63 1010.80
1006.02 1005.98 1005.73 1005.32 1004.79 1004.21 1003.65 1003.18 1002.82 1002.59 1002.47 1002.43 1002.43 1002.41 1002.33 1002.16 1001.91 1001.59 1001.24 1000.92 1000.68 1000.59 1000.67 1000.95 1001.43 1002.07 1002.85 1003.69 1004.54 1005.35 1006.07 1006.69 1007.20 1007.60 1007.92 1008.19 1008.43 1008.67 1008.91 1009.16 1009.41 1009.64 1009.85 1010.02
1005.92 1005.75 1005.37 1004.83 1004.18 1003.51 1002.89 1002.39 1002.05 1001.88 1001.86 1001.95 1002.09 1002.22 1002.28 1002.23 1002.06 1001.80 1001.47 1001.15 1000.88 1000.75 1000.79 1001.02 1001.44 1002.04 1002.76 1003.54 1004.33 1005.07 1005.72 1006.27 1006.70 1007.04 1007.30 1007.52 1007.73 1007.94 1008.17 1008.41 1008.65 1008.88 1009.08 1009.25
1005.58 1005.31 1004.84 1004.23 1003.52 1002.82 1002.19 1001.70 1001.40 1001.29 1001.36 1001.57 1001.83 1002.09 1002.29 1002.37 1002.32 1002.15 1001.90 1001.63 1001.40 1001.27 1001.30 1001.50 1001.88 1002.40 1003.04 1003.73 1004.42 1005.05 1005.60 1006.04 1006.39 1006.65 1006.86 1007.04 1007.22 1007.42 1007.63 1007.86 1008.10 1008.32 1008.51 1008.67
1005.01 1004.67 1004.17 1003.54 1002.85 1002.17 1001.58 1001.14 1000.90 1000.87 1001.02 1001.32 1001.70 1002.08 1002.39 1002.61 1002.69 1002.66 1002.53 1002.35 1002.20 1002.13 1002.17 1002.36 1002.69 1003.14 1003.68 1004.25 1004.82 1005.32 1005.75 1006.09 1006.35 1006.54 1006.70 1006.85 1007.01 1007.20 1007.41 1007.64 1007.86 1008.07 1008.25 1008.39
1004.26 1003.91 1003.43 1002.84 1002.22 1001.61 1001.11 1000.76 1000.60 1000.64 1000.87 1001.25 1001.71 1002.19 1002.62 1002.96 1003.18 1003.29 1003.30 1003.25 1003.20 1003.20 1003.28 1003.47 1003.76 1004.14 1004.57 1005.02 1005.45 1005.83 1006.15 1006.39 1006.57 1006.71 1006.83 1006.97 1007.13 1007.33 1007.54 1007.77 1008.00 1008.19 1008.35 1008.46
1003.44 1003.12 1002.71 1002.23 1001.71 1001.23 1000.84 1000.60 1000.53 1000.64 1000.94 1001.37 1001.89 1002.44 1002.96 1003.40 1003.74 1003.98 1004.12 1004.20 1004.27 1004.34 1004.47 1004.66 1004.92 1005.22 1005.56 1005.90 1006.22 1006.48 1006.69 1006.85 1006.98 1007.09 1007.20 1007.34 1007.52 1007.73 1007.96 1008.20 1008.42 1008.61 1008.75 1008.83
1002.68 1002.44 1002.13 1001.78 1001.41 1001.07 1000.81 1000.67 1000.69 1000.86 1001.20 1001.66 1002.21 1002.79 1003.36 1003.87 1004.30 1004.65 1004.90 1005.10 1005.25 1005.40 1005.57 1005.77 1005.99 1006.24 1006.50 1006.74 1006.95 1007.13 1007.26 1007.37 1007.46 1007.55 1007.67 1007.83 1008.03 1008.27 1008.52 1008.78 1009.00 1009.19 1009.31 1009.36
1002.09 1001.94 1001.76 1001.54 1001.32 1001.13 1000.99 1000.95 1001.04 1001.25 1001.60 1002.06 1002.60 1003.18 1003.76 1004.31 1004.80 1005.21 1005.55 1005.82 1006.06 1006.26 1006.46 1006.66 1006.86 1007.06 1007.24 1007.41 1007.54 1007.65 1007.73 1007.80 1007.87 1007.97 1008.11 1008.29 1008.52 1008.78 1009.05 1009.32 1009.55 1009.74 1009.85 1009.89
1001.72 1001.67 1001.61 1001.53 1001.44 1001.37 1001.33 1001.37 1001.49 1001.72 1002.06 1002.49 1003.00 1003.55 1004.11 1004.66 1005.16 1005.61 1006.00 1006.33 1006.61 1006.86 1007.07 1007.27 1007.44 1007.60 1007.73 1007.84 1007.92 1007.97 1008.02 1008.07 1008.14 1008.23 1008.38 1008.58 1008.82 1009.10 1009.39 1009.66 1009.90 1010.09 1010.21 1010.25
1001.56 1001.60 1001.63 1001.66 1001.67 1001.69 1001.73 1001.81 1001.96 1002.18 1002.49 1002.88 1003.34 1003.84 1004.37 1004.90 1005.40 1005.87 1006.28 1006.64 1006.95 1007.22 1007.44 1007.63 1007.78 1007.90 1007.99 1008.06 1008.09 1008.12 1008.13 1008.16 1008.22 1008.31 1008.46 1008.65 1008.90 1009.17 1009.45 1009.73 1009.97 1010.16 1010.29 1010.35
1001.56 1001.66 1001.76 1001.85 1001.93 1002.01 1002.09 1002.19 1002.34 1002.55 1002.82 1003.17 1003.58 1004.05 1004.54 1005.05 1005.54 1006.01 1006.44 1006.82 1007.15 1007.42 1007.65 1007.83 1007.96 1008.06 1008.11 1008.14 1008.15 1008.14 1008.13 1008.14 1008.17 1008.25 1008.37 1008.54 1008.76 1009.01 1009.27 1009.53 1009.76 1009.95 1010.09 1010.17
1001.65 1001.77 1001.90 1002.03 1002.14 1002.24 1002.34 1002.45 1002.60 1002.79 1003.04 1003.36 1003.74 1004.18 1004.65 1005.15 1005.64 1006.12 1006.56 1006.95 1007.29 1007.58 1007.80 1007.98 1008.10 1008.17 1008.20 1008.20 1008.18 1008.14 1008.10 1008.08 1008.08 1008.12 1008.20 1008.33 1008.50 1008.70 1008.92 1009.14 1009.35 1009.53 1009.68 1009.77
1001.75 1001.87 1002.00 1002.14 1002.26 1002.37 1002.48 1002.59 1002.74 1002.92 1003.17 1003.48 1003.85 1004.28 1004.76 1005.26 1005.76 1006.25 1006.71 1007.12 1007.48 1007.77 1008.00 1008.17 1008.28 1008.34 1008.35 1008.33 1008.28 1008.21 1008.14 1008.08 1008.04 1008.02 1008.05 1008.11 1008.21 1008.34 1008.50 1008.67 1008.84 1009.00 1009.14 1009.24
1001.84 1001.95 1002.07 1002.20 1002.32 1002.44 1002.55 1002.67 1002.83 1003.03 1003.28 1003.60 1003.99 1004.44 1004.93 1005.45 1005.97 1006.48 1006.96 1007.39 1007.75 1008.05 1008.28 1008.45 1008.55 1008.60 1008.59 1008.55 1008.47 1008.38 1008.28 1008.17 1008.08 1008.01 1007.96 1007.95 1007.97 1008.03 1008.11 1008.21 1008.33 1008.45 1008.57 1008.67
1001.95 1002.04 1002.16 1002.28 1002.40 1002.52 1002.65 1002.79 1002.97 1003.19 1003.48 1003.82 1004.23 1004.70 1005.22 1005.75 1006.29 1006.82 1007.31 1007.74 1008.11 1008.41 1008.64 1008.80 1008.89 1008.92 1008.90 1008.84 1008.74 1008.62 1008.49 1008.34 1008.20 1008.07 1007.96 1007.87 1007.81 1007.78 1007.78 1007.81 1007.87 1007.94 1008.02 1008.10
1002.14 1002.23 1002.35 1002.47 1002.61 1002.75 1002.89 1003.06 1003.27 1003.52 1003.83 1004.20 1004.63 1005.12 1005.64 1006.18 1006.72 1007.24 1007.72 1008.14 1008.50 1008.79 1009.00 1009.14 1009.22 1009.23 1009.20 1009.12 1009.00 1008.85 1008.69 1008.51 1008.32 1008.14 1007.96 1007.80 1007.67 1007.57 1007.49 1007.45 1007.44 1007.45 1007.49 1007.53
1002.50 1002.60 1002.73 1002.87 1003.03 1003.19 1003.37 1003.56 1003.79 1004.06 1004.39 1004.76 1005.19 1005.67 1006.17 1006.69 1007.20 1007.69 1008.13 1008.52 1008.85 1009.10 1009.28 1009.39 1009.44 1009.44 1009.38 1009.27 1009.13 1008.96 1008.77 1008.56 1008.33 1008.11 1007.88 1007.67 1007.48 1007.31 1007.18 1007.07 1007.00 1006.96 1006.95 1006.95
1003.08 1003.20 1003.35 1003.52 1003.70 1003.89 1004.08 1004.30 1004.54 1004.81 1005.12 1005.48 1005.88 1006.31 1006.76 1007.22 1007.67 1008.09 1008.48 1008.81 1009.07 1009.27 1009.41 1009.48 1009.49 1009.45 1009.36 1009.23 1009.06 1008.87 1008.65 1008.41 1008.15 1007.90 1007.64 1007.39 1007.16 1006.95 1006.77 1006.63 1006.52 1006.43 1006.38 1006.35
1003.88 1004.03 1004.21 1004.40 1004.60 1004.80 1005.00 1005.21 1005.44 1005.69 1005.96 1006.27 1006.60 1006.96 1007.33 1007.70 1008.06 1008.40 1008.69 1008.94 1009.13 1009.26 1009.34 1009.36 1009.32 1009.24 1009.11 1008.95 1008.75 1008.53 1008.29 1008.02 1007.75 1007.47 1007.19 1006.93 1006.68 1006.45 1006.26 1006.10 1005.97 1005.87 1005.80 1005.74
1004.86 1005.03 1005.23 1005.43 1005.63 1005.82 1006.01 1006.19 1006.38 1006.58 1006.79 1007.02 1007.27 1007.53 1007.80 1008.06 1008.32 1008.55 1008.74 1008.90 1009.01 1009.07 1009.08 1009.05 1008.96 1008.83 1008.67 1008.47 1008.25 1008.00 1007.73 1007.45 1007.16 1006.87 1006.59 1006.32 1006.08 1005.87 1005.68 1005.53 1005.41 1005.32 1005.26 1005.20
1005.92 1006.09 1006.28 1006.47 1006.65 1006.81 1006.96 1007.10 1007.23 1007.36 1007.49 1007.63 1007.78 1007.94 1008.10 1008.25 1008.40 1008.53 1008.64 1008.71 1008.75 1008.74 1008.69 1008.60 1008.48 1008.31 1008.11 1007.88 1007.63 1007.35 1007.07 1006.77 1006.48 1006.20 1005.93 1005.68 1005.46 1005.28 1005.13 1005.02 1004.93 1004.88 1004.84 1004.82
1006.94 1007.09 1007.25 1007.40 1007.53 1007.64 1007.74 1007.81 1007.87 1007.93 1007.98 1008.03 1008.08 1008.15 1008.21 1008.27 1008.33 1008.38 1008.41 1008.42 1008.39 1008.34 1008.25 1008.12 1007.96 1007.76 1007.54 1007.29 1007.01 1006.73 1006.44 1006.14 1005.86 1005.59 1005.34 1005.13 1004.96 1004.82 1004.72 1004.66 1004.64 1004.63 1004.64 1004.66
1007.81 1007.92 1008.02 1008.11 1008.18 1008.22 1008.25 1008.26 1008.25 1008.23 1008.20 1008.18 1008.17 1008.15 1008.15 1008.15 1008.14 1008.13 1008.11 1008.08 1008.02 1007.93 1007.82 1007.67 1007.49 1007.29 1007.05 1006.80 1006.53 1006.24 1005.96 1005.68 1005.42 1005.18 1004.98 1004.81 1004.69 1004.61 1004.57 1004.57 1004.60 1004.65 1004.72 1004.78
1008.47 1008.51 1008.54 1008.56 1008.56 1008.53 1008.49 1008.43 1008.37 1008.29 1008.22 1008.15 1008.08 1008.02 1007.98 1007.94 1007.90 1007.87 1007.82 1007.76 1007.69 1007.60 1007.48 1007.33 1007.16 1006.96 1006.74 1006.50 1006.25 1005.99 1005.74 1005.50 1005.27 1005.08 1004.93 1004.81 1004.74 1004.71 1004.73 1004.78 1004.86 1004.95 1005.05 1005.14
Thickness
5809 5819 5822 5820 5821 5825 5820 5817 5809 5811 5810 5814 5818 5818 5818 5817 5814 5811 5808 5807 5804 5800 5797 5795 5794 5792 5790 5788 5786 5783 5779 5774 5771 5768 5767 5764 5761 5759 5756 5754 5751 5748 5745 5742
5796 5811 5815 5812 5820 5823 5821 5821 5816 5814 5809 5822 5821 5817 5811 5808 5806 5801 5799 5799 5798 5796 5793 5789 5787 5786 5784 5781 5779 5776 5770 5767 5765 5762 5759 5756 5754 5752 5749 5747 5744 5742 5739 5736
5777 5797 5800 5792 5811 5815 5816 5819 5814 5803 5807 5815 5809 5803 5802 5802 5800 5796 5794 5793 5792 5790 5787 5784 5782 5780 5777 5776 5773 5769 5765 5761 5758 5754 5751 5749 5748 5745 5742 5739 5736 5733 5731 5729
5771 5773 5757 5796 5827 5823 5812 5812 5817 5812 5810 5809 5805 5803 5802 5801 5796 5791 5789 5786 5785 5785 5782 5780 5777 5775 5772 5768 5765 5761 5757 5754 5751 5748 5744 5742 5739 5737 5734 5732 5728 5725 5723 5721
5762 5758 5769 5796 5811 5811 5799 5795 5811 5805 5803 5803 5804 5797 5791 5795 5793 5788 5785 5782 5779 5780 5777 5773 5769 5766 5762 5758 5755 5750 5748 5745 5742 5739 5735 5733 5730 5727 5725 5723 5720 5717 5715 5713
5755 5746 5748 5776 5802 5813 5800 5777 5799 5798 5793 5792 5789 5772 5773 5785 5784 5781 5778 5775 5772 5771 5768 5763 5760 5757 5751 5747 5744 5740 5738 5736 5734 5731 5726 5723 5721 5719 5717 5714 5712 5710 5707 5705
5746 5744 5759 5781 5796 5795 5763 5763 5788 5791 5787 5784 5777 5774 5776 5778 5775 5772 5768 5766 5764 5761 5757 5753 5750 5746 5740 5736 5733 5733 5731 5728 5725 5722 5719 5716 5713 5710 5707 5704 5702 5700 5698 5696
5743 5735 5743 5776 5778 5765 5763 5779 5780 5779 5778 5775 5773 5772 5770 5767 5763 5760 5757 5755 5753 5748 5745 5743 5740 5734 5728 5725 5725 5724 5721 5718 5715 5713 5711 5708 5704 5700 5697 5694 5692 5690 5688 5687
5743 5742 5757 5768 5768 5771 5775 5770 5769 5769 5769 5766 5762 5758 5757 5753 5751 5749 5746 5743 5741 5737 5733 5730 5728 5724 5718 5716 5715 5713 5710 5707 5704 5703 5700 5698 5694 5691 5687 5684 5681 5680 5678 5676
5740 5746 5753 5758 5761 5764 5765 5762 5763 5763 5761 5757 5751 5749 5746 5743 5740 5738 5735 5733 5730 5726 5721 5717 5716 5714 5711 5709 5706 5702 5698 5696 5694 5692 5690 5687 5684 5681 5678 5675 5672 5669 5667 5665
5729 5735 5741 5745 5748 5751 5752 5753 5752 5752 5751 5747 5743 5739 5736 5731 5729 5727 5724 5722 5719 5715 5710 5707 5705 5702 5701 5698 5695 5691 5687 5685 5683 5682 5679 5676 5673 5669 5667 5664 5662 5659 5657 5655
5718 5728 5727 5728 5738 5741 5738 5737 5739 5737 5736 5736 5735 5729 5727 5723 5720 5717 5714 5711 5707 5704 5701 5698 5696 5692 5690 5688 5685 5680 5677 5675 5674 5672 5670 5667 5664 5660 5656 5653 5650 5648 5646 5644
5722 5727 5726 5726 5729 5729 5727 5728 5729 5727 5725 5723 5723 5721 5716 5712 5709 5707 5704 5701 5697 5695 5692 5689 5686 5683 5680 5678 5675 5671 5667 5665 5665 5663 5661 5659 5656 5652 5647 5643 5640 5638 5636 5634
5716 5715 5711 5713 5714 5718 5718 5719 5718 5717 5716 5714 5711 5709 5705 5701 5698 5695 5693 5692 5689 5686 5683 5679 5677 5674 5672 5669 5665 5662 5660 5658 5655 5653 5652 5650 5647 5645 5642 5638 5634 5632 5628 5624
5703 5704 5703 5705 5705 5706 5706 5705 5703 5701 5701 5700 5699 5696 5692 5688 5686 5684 5684 5683 5680 5676 5673 5670 5666 5663 5662 5659 5656 5653 5651 5650 5647 5645 5643 5641 5639 5638 5635 5631 5628 5625 5622 5617
5692 5694 5693 5692 5691 5692 5692 5691 5689 5688 5688 5687 5685 5683 5681 5678 5676 5674 5673 5671 5667 5664 5661 5659 5655 5654 5652 5649 5646 5643 5641 5639 5637 5636 5635 5633 5631 5629 5626 5623 5620 5617 5613 5609
5678 5677 5678 5679 5680 5680 5681 5682 5681 5680 5679 5677 5675 5674 5671 5668 5665 5662 5661 5660 5658 5655 5652 5649 5646 5644 5642 5639 5636 5634 5633 5631 5628 5627 5627 5625 5622 5620 5617 5614 5610 5607 5604 5600
5673 5674 5674 5672 5671 5670 5671 5672 5673 5672 5669 5669 5667 5665 5661 5657 5654 5651 5650 5649 5647 5644 5642 5640 5637 5635 5632 5630 5627 5625 5623 5622 5621 5618 5617 5615 5612 5610 5608 5605 5602 5598 5595 5592
5665 5665 5666 5665 5665 5663 5663 5663 5663 5663 5662 5660 5657 5654 5652 5650 5647 5645 5642 5639 5636 5632 5632 5631 5626 5625 5622 5620 5617 5616 5614 5613 5611 5610 5608 5605 5603 5602 5599 5596 5593 5590 5588 5585
5657 5657 5657 5657 5657 5655 5654 5654 5654 5653 5653 5651 5648 5645 5643 5641 5640 5637 5634 5631 5629 5627 5625 5622 5619 5617 5614 5612 5608 5608 5607 5605 5603 5602 5600 5598 5595 5593 5591 5588 5585 5582 5580 5577
5648 5648 5647 5647 5646 5646 5646 5645 5644 5642 5643 5642 5639 5636 5634 5634 5632 5630 5627 5624 5623 5620 5617 5613 5611 5609 5607 5603 5600 5601 5599 5597 5595 5593 5591 5589 5587 5585 5582 5580 5577 5574 5571 5569
5639 5639 5638 5637 5637 5636 5637 5637 5636 5635 5634 5632 5631 5629 5627 5625 5624 5623 5621 5618 5617 5612 5610 5608 5606 5602 5599 5596 5596 5595 5593 5590 5587 5585 5583 5580 5578 5575 5572 5571 5568 5565 5563 5560
5630 5630 5629 5628 5628 5628 5629 5629 5628 5627 5625 5624 5622 5620 5620 5618 5618 5615 5612 5612 5610 5605 5603 5601 5597 5593 5589 5589 5588 5587 5585 5582 5579 5577 5574 5571 5568 5565 5563 5561 5559 5556 5554 5551
5622 5622 5621 5621 5622 5620 5619 5621 5620 5620 5619 5618 5617 5616 5614 5613 5611 5611 5608 5604 5600 5597 5596 5592 5587 5584 5581 5581 5580 5578 5577 5574 5572 5569 5566 5563 5560 5558 5555 5552 5550 5547 5545 5543
5616 5616 5616 5615 5614 5615 5615 5615 5614 5614 5613 5613 5612 5611 5610 5608 5605 5604 5601 5598 5593 5589 5588 5584 5580 5577 5574 5574 5572 5570 5568 5566 5564 5560 5558 5555 5552 5550 5547 5545 5542 5539 5537 5534
5611 5611 5612 5611 5611 5611 5612 5611 5609 5608 5607 5606 5606 5605 5605 5603 5600 5597 5594 5591 5589 5584 5582 5579 5576 5571 5569 5568 5566 5564 5561 5558 5556 5553 5550 5547 5543 5541 5538 5536 5534 5531 5528 5526
5608 5608 5607 5607 5608 5609 5609 5607 5605 5603 5602 5600 5598 5598 5598 5596 5593 5590 5588 5585 5582 5579 5576 5572 5569 5566 5564 5562 5560 5558 5555 5552 5549 5546 5543 5539 5536 5534 5531 5527 5525 5522 5519 5517